G6212 Weather Reports


Display with metric or nautical units.
time (UTC)temp
F
wind
direction
speed
MPH
gust
MPH
rain 1hr
in
rain 24hr
in
rain mn
in
humidity
%
barometer
mb
20260504172057 77 191 4.0 4.0 0.00 0.00 0.00 65
20260504171557 76 204 5.0 6.0 0.00 0.00 0.00 66
20260504171057 76 176 4.0 4.0 0.00 0.00 0.00 67
20260504170557 76 191 4.0 5.0 0.00 0.00 0.00 67
20260504151059 73 202 5.0 6.0 0.00 0.00 0.00 72
20260504150619 72 199 5.0 6.0 0.00 0.00 0.00 72
20260504141100 69 187 3.0 3.0 0.00 0.00 0.00 75
20260504140620 68 162 3.0 5.0 0.00 0.00 0.00 74
20260504140140 68 170 3.0 4.0 0.00 0.00 0.00 74
20260504130601 64 143 2.0 2.0 0.00 0.00 0.00 78
20260504110623 60 73 1.0 2.0 0.00 0.00 0.00 83
20260504110103 60 34 1.0 1.0 0.00 0.00 0.00 82
20260504100604 60 152 1.0 1.0 0.00 0.00 0.00 81
20260504100105 60 181 0.0 1.0 0.00 0.00 0.00 81
20260504090125 60 113 1.0 2.0 0.00 0.00 0.00 80
20260504081626 61 164 1.0 2.0 0.00 0.00 0.00 79
20260504081106 61 136 2.0 2.0 0.00 0.00 0.00 79
20260504080606 61 184 2.0 2.0 0.00 0.00 0.00 79
20260504080106 61 123 1.0 2.0 0.00 0.00 0.00 79
20260504070108 61 212 1.0 1.0 0.00 0.00 0.00 81
20260504060109 62 190 1.0 2.0 0.00 0.00 0.00 78
20260504050650 63 211 1.0 2.0 0.00 0.00 0.00 76
20260504050110 63 212 1.0 2.0 0.00 0.00 0.00 76
20260504045610 63 202 2.0 2.0 0.00 0.00 0.00 76
20260504045110 63 217 1.0 2.0 0.00 0.00 0.00 76
20260504044610 63 195 1.0 2.0 0.00 0.00 0.00 75
20260504044110 64 216 1.0 2.0 0.00 0.00 0.00 75
20260504043630 64 215 1.0 2.0 0.00 0.00 0.00 76
20260504043110 64 201 1.0 1.0 0.00 0.00 0.00 76
20260504042610 64 200 1.0 2.0 0.00 0.00 0.00 75
20260504042110 64 203 1.0 2.0 0.00 0.00 0.00 74
20260504041610 64 225 0.0 0.0 0.00 0.00 0.00 74
20260504041111 65 212 1.0 1.0 0.00 0.00 0.00 72
20260504040611 65 199 1.0 1.0 0.00 0.00 0.00 72
20260504040111 65 192 1.0 1.0 0.00 0.00 0.00 71
20260504035611 65 196 2.0 2.0 0.00 0.00 0.00 70
20260504035111 65 188 2.0 3.0 0.00 0.00 0.00 70
20260504034651 66 166 2.0 3.0 0.00 0.00 0.00 69
20260504034111 66 178 1.0 2.0 0.00 0.00 0.00 69
20260504033611 66 177 2.0 2.0 0.00 0.00 0.00 69
20260504033111 66 179 2.0 3.0 0.00 0.00 0.00 68
20260504032611 66 183 2.0 3.0 0.00 0.00 0.00 68
20260504032112 66 168 1.0 2.0 0.00 0.00 0.00 67
20260504031611 67 165 2.0 3.0 0.00 0.00 0.00 67
20260504031112 67 154 2.0 3.0 0.00 0.00 0.00 67
20260504030612 67 162 2.0 3.0 0.00 0.00 0.00 66
20260504030112 67 158 3.0 4.0 0.00 0.00 0.00 65
20260504025612 67 164 2.0 3.0 0.00 0.00 0.00 65
20260504025112 68 183 3.0 4.0 0.00 0.00 0.00 65
20260504024613 68 172 3.0 3.0 0.00 0.00 0.00 64
20260504024112 68 174 2.0 3.0 0.00 0.00 0.00 64
20260504023612 68 187 2.0 3.0 0.00 0.00 0.00 64
20260504023112 68 160 2.0 2.0 0.00 0.00 0.00 64
20260504022613 68 148 2.0 3.0 0.00 0.00 0.00 63
20260504022112 69 176 2.0 3.0 0.00 0.00 0.00 63
20260504021653 69 207 2.0 3.0 0.00 0.00 0.00 62
20260504021112 69 169 2.0 3.0 0.00 0.00 0.00 62
20260504020613 69 167 2.0 4.0 0.00 0.00 0.00 62
20260504020113 70 172 2.0 3.0 0.00 0.00 0.00 61
20260504015613 70 169 3.0 3.0 0.00 0.00 0.00 60
20260504015113 70 158 2.0 3.0 0.00 0.00 0.00 60
20260504014613 70 181 3.0 3.0 0.00 0.00 0.00 59
20260504014113 70 172 2.0 4.0 0.00 0.00 0.00 59
20260504013613 71 170 2.0 3.0 0.00 0.00 0.00 59
20260504013113 71 186 3.0 3.0 0.00 0.00 0.00 58
20260504012613 71 158 3.0 4.0 0.00 0.00 0.00 56
20260504012113 72 167 3.0 4.0 0.00 0.00 0.00 56
20260504011633 72 170 3.0 3.0 0.00 0.00 0.00 55
20260504011154 72 183 3.0 4.0 0.00 0.00 0.00 54
20260504010613 73 157 2.0 3.0 0.00 0.00 0.00 54
20260504010114 73 182 2.0 3.0 0.00 0.00 0.00 53
20260504005613 73 172 3.0 3.0 0.00 0.00 0.00 52
20260504005134 74 192 2.0 3.0 0.00 0.00 0.00 52
20260504004614 74 157 3.0 5.0 0.00 0.00 0.00 52
20260504004114 74 133 2.0 3.0 0.00 0.00 0.00 52
20260504003614 74 170 3.0 4.0 0.00 0.00 0.00 52
20260504003114 75 179 3.0 4.0 0.00 0.00 0.00 51
20260504002614 75 151 4.0 5.0 0.00 0.00 0.00 50
20260504002114 75 136 3.0 3.0 0.00 0.00 0.00 50
20260504001614 75 161 4.0 5.0 0.00 0.00 0.00 49
20260504001114 76 166 3.0 5.0 0.00 0.00 0.00 49
20260504000615 76 151 4.0 5.0 0.00 0.00 0.00 48
20260504000114 76 142 5.0 5.0 0.00 0.00 0.00 47
20260503235614 77 156 4.0 6.0 0.00 0.00 0.00 46
20260503235134 77 161 4.0 5.0 0.00 0.00 0.00 44
20260503234634 78 178 2.0 3.0 0.00 0.00 0.00 43
20260503234115 78 175 2.0 3.0 0.00 0.00 0.00 42
20260503233615 78 193 3.0 5.0 0.00 0.00 0.00 42
20260503233115 78 183 3.0 4.0 0.00 0.00 0.00 41
20260503232635 78 163 4.0 5.0 0.00 0.00 0.00 39
20260503232115 78 212 2.0 3.0 0.00 0.00 0.00 39
20260503231615 78 132 3.0 3.0 0.00 0.00 0.00 38
20260503231115 78 187 3.0 5.0 0.00 0.00 0.00 38
20260503230615 78 188 4.0 5.0 0.00 0.00 0.00 37
20260503230115 78 94 3.0 3.0 0.00 0.00 0.00 37
20260503225615 78 199 3.0 5.0 0.00 0.00 0.00 40
20260503225115 78 195 3.0 4.0 0.00 0.00 0.00 38
20260503224616 78 142 4.0 5.0 0.00 0.00 0.00 38
20260503224116 78 100 4.0 4.0 0.00 0.00 0.00 37
20260503223616 78 136 2.0 3.0 0.00 0.00 0.00 38
20260503223116 78 104 3.0 4.0 0.00 0.00 0.00 37
20260503222636 79 139 4.0 5.0 0.00 0.00 0.00 38
20260503222116 78 182 3.0 5.0 0.00 0.00 0.00 40
20260503221616 78 140 3.0 4.0 0.00 0.00 0.00 38
20260503221016 78 180 4.0 5.0 0.00 0.00 0.00 39
20260503220516 78 198 4.0 5.0 0.00 0.00 0.00 40
20260503220037 78 187 3.0 4.0 0.00 0.00 0.00 39
20260503215537 78 188 4.0 5.0 0.00 0.00 0.00 39
20260503215016 79 211 4.0 5.0 0.00 0.00 0.00 39
20260503214637 79 222 3.0 4.0 0.00 0.00 0.00 39
20260503214117 78 154 3.0 4.0 0.00 0.00 0.00 38
20260503213617 78 151 3.0 4.0 0.00 0.00 0.00 38
20260503213137 79 185 4.0 6.0 0.00 0.00 0.00 38
20260503212617 79 166 4.0 6.0 0.00 0.00 0.00 38
20260503212017 79 162 4.0 4.0 0.00 0.00 0.00 38
20260503211517 79 130 4.0 4.0 0.00 0.00 0.00 39
20260503211017 79 185 3.0 4.0 0.00 0.00 0.00 41
20260503210518 79 148 4.0 5.0 0.00 0.00 0.00 40
20260503210058 79 171 4.0 4.0 0.00 0.00 0.00 39
20260503205518 79 126 4.0 5.0 0.00 0.00 0.00 39
20260503205018 79 106 4.0 4.0 0.00 0.00 0.00 39
20260503204518 79 140 3.0 4.0 0.00 0.00 0.00 41
20260503204018 79 110 4.0 5.0 0.00 0.00 0.00 40
20260503203518 79 114 3.0 5.0 0.00 0.00 0.00 41
20260503203018 79 122 4.0 4.0 0.00 0.00 0.00 41
20260503202538 79 147 3.0 4.0 0.00 0.00 0.00 41
20260503202059 79 222 3.0 4.0 0.00 0.00 0.00 41
20260503201518 79 92 3.0 4.0 0.00 0.00 0.00 41
20260503201018 79 66 3.0 4.0 0.00 0.00 0.00 40
20260503200518 79 31 3.0 4.0 0.00 0.00 0.00 40
20260503200019 79 67 3.0 4.0 0.00 0.00 0.00 39
20260503195519 79 113 3.0 4.0 0.00 0.00 0.00 41
20260503195019 79 225 3.0 3.0 0.00 0.00 0.00 42
20260503194519 78 174 4.0 5.0 0.00 0.00 0.00 42
20260503194019 78 137 3.0 5.0 0.00 0.00 0.00 42
20260503193519 78 159 4.0 5.0 0.00 0.00 0.00 41
20260503193019 79 40 3.0 4.0 0.00 0.00 0.00 41
20260503192539 78 153 2.0 3.0 0.00 0.00 0.00 43
20260503192019 78 247 3.0 4.0 0.00 0.00 0.00 43
20260503191600 78 195 4.0 6.0 0.00 0.00 0.00 44
20260503191019 78 154 3.0 4.0 0.00 0.00 0.00 44
20260503190519 78 55 3.0 3.0 0.00 0.00 0.00 43
20260503190020 78 146 4.0 5.0 0.00 0.00 0.00 43
20260503185520 78 135 4.0 4.0 0.00 0.00 0.00 43
20260503185040 78 117 4.0 6.0 0.00 0.00 0.00 43
20260503184540 78 121 2.0 3.0 0.00 0.00 0.00 44
20260503184020 78 160 4.0 6.0 0.00 0.00 0.00 43
20260503183540 78 205 3.0 4.0 0.00 0.00 0.00 45
20260503183020 78 239 2.0 4.0 0.00 0.00 0.00 44
20260503182520 77 320 2.0 3.0 0.00 0.00 0.00 44
20260503182040 77 185 4.0 6.0 0.00 0.00 0.00 43
20260503181520 77 150 3.0 4.0 0.00 0.00 0.00 43
20260503181020 77 123 4.0 5.0 0.00 0.00 0.00 44
20260503180521 77 64 3.0 4.0 0.00 0.00 0.00 44
20260503180021 77 161 4.0 5.0 0.00 0.00 0.00 43
20260503175521 77 178 3.0 3.0 0.00 0.00 0.00 46
20260503175021 77 217 3.0 4.0 0.00 0.00 0.00 47
20260503174521 77 160 4.0 6.0 0.00 0.00 0.00 45
20260503174021 77 139 3.0 4.0 0.00 0.00 0.00 46
20260503173521 77 175 3.0 6.0 0.00 0.00 0.00 47
20260503173021 77 198 3.0 4.0 0.00 0.00 0.00 47
20260503172521 76 23 2.0 3.0 0.00 0.00 0.00 48